Perth, Australia

1:47 PM AWST on May 23, 2018 (GMT +0800)
Perth International

Weather History for YPPH - June, 2013

Change the Weather History Date:

Saturday, June 22, 2013

  Actual Average Record
Temperature  
Mean Temperature 60 °F -  
Max Temperature 73 °F 65 °F 73 °F (2001)
Min Temperature 47 °F 48 °F 34 °F (2012)
Degree Days  
Heating Degree Days 5    
Growing Degree Days 10 (Base 50)    
Moisture  
Dew Point 39 °F    
Average Humidity 47    
Maximum Humidity 82    
Minimum Humidity 20    
Precipitation  
Precipitation 0.00 in 0.21 in - ()
Sea Level Pressure  
Sea Level Pressure 30.02 in    
Wind  
Wind Speed 8 mph ()    
Max Wind Speed 16 mph    
Max Gust Speed 21 mph    
Visibility 18.3 miles    
Events      
Averages and records for this station are not official NWS values.
T = Trace of Precipitation, MM = Missing Value Source: Averaged Metar Reports

Daily Weather History Graph

Daily Weather History Graph

Search for Another Location

Airport or City:

Astronomy

Jun. 22, 2013 Rise Set
Actual Time 7:16 AM AWST 5:19 PM AWST
Civil Twilight 6:49 AM AWST 5:46 PM AWST
Nautical Twilight 6:18 AM AWST 6:17 PM AWST
Astronomical Twilight 5:49 AM AWST 6:47 PM AWST
Moon 4:17 PM AWST (6/22) 5:33 AM AWST (6/22)
Length of Visible Light 10h 57m
Length of Day
10h 03m
Waxing Gibbous, 97% of the Moon is Illuminated
Jun 22
Waxing Gibbous
Jun 23
Full
Jun 30
Last Quarter
Jul 8
New
Jul 16
First Quarter

Hourly Weather History & Observations

Time (AWST) Temp. Dew Point Humidity Pressure Visibility Wind Dir Wind Speed Gust Speed Precip Events Conditions
12:00 AM 49 °F 36 °F 50% 30.11 in 19 mi NE 6.9 mph - -   Partly Cloudy
12:00 AM 50.0 °F 35.6 °F 58% 30.09 in - NE 6.9 mph - N/A   Clear
12:30 AM 50.0 °F 35.6 °F 58% 30.09 in - ENE 9.2 mph - N/A   Clear
1:00 AM 51.8 °F 33.8 °F 50% 30.06 in - NE 10.4 mph - N/A   Clear
1:30 AM 53.6 °F 33.8 °F 47% 30.06 in - NE 8.1 mph - N/A   Clear
2:00 AM 54 °F 33 °F 32% 30.07 in - NNE 8.1 mph - -  
2:00 AM 53.6 °F 32.0 °F 44% 30.06 in - NNE 8.1 mph 20.7 mph N/A   Clear
2:30 AM 53.6 °F 33.8 °F 47% 30.06 in - NNE 6.9 mph - N/A   Clear
3:00 AM 53 °F 33 °F 34% 30.06 in 19 mi NE 6.9 mph - -   Partly Cloudy
3:00 AM 53.6 °F 33.8 °F 47% 30.04 in - NE 6.9 mph - N/A   Clear
3:30 AM 51.8 °F 33.8 °F 50% 30.04 in - NE 8.1 mph - N/A   Clear
4:00 AM 50.0 °F 33.8 °F 54% 30.04 in - ENE 6.9 mph - N/A   Clear
4:30 AM 50.0 °F 33.8 °F 54% 30.04 in - ENE 6.9 mph - N/A   Clear
5:00 AM 49 °F 35 °F 47% 30.06 in - North 5.8 mph - -  
5:00 AM 50.0 °F 35.6 °F 58% 30.06 in - North 5.8 mph - N/A   Clear
5:30 AM 50.0 °F 33.8 °F 54% 30.06 in - NE 8.1 mph - N/A   Clear
6:00 AM 50 °F 34 °F 42% 30.06 in 19 mi NE 11.5 mph - -   Partly Cloudy
6:00 AM 50.0 °F 33.8 °F 54% 30.06 in - NE 11.5 mph - N/A   Clear
6:30 AM 50.0 °F 33.8 °F 54% 30.06 in - NE 8.1 mph - N/A   Clear
7:00 AM 48.2 °F 33.8 °F 58% 30.06 in - ENE 10.4 mph - N/A   Clear
7:30 AM 48.2 °F 33.8 °F 58% 30.06 in - NE 9.2 mph - N/A   Clear
8:00 AM 51 °F 34 °F 41% 30.07 in - NE 11.5 mph - -  
8:00 AM 51.8 °F 33.8 °F 50% 30.06 in - NE 11.5 mph - N/A   Clear
8:30 AM 53.6 °F 35.6 °F 51% 30.06 in - NE 10.4 mph - N/A   Clear
9:00 AM 57 °F 37 °F 35% 30.08 in 19 mi NE 10.4 mph - -   Partly Cloudy
9:00 AM 57.2 °F 37.4 °F 48% 30.06 in - NE 10.4 mph - N/A   Clear
9:30 AM 60.8 °F 37.4 °F 42% 30.06 in - NE 10.4 mph - N/A   Clear
10:00 AM 64.4 °F 39.2 °F 40% 30.06 in - North 15.0 mph - N/A   Clear
10:30 AM 64.4 °F 37.4 °F 37% 30.06 in - NNE 16.1 mph - N/A   Clear
11:00 AM 67 °F 37 °F 22% 30.07 in - North 13.8 mph - -  
11:00 AM 66.2 °F 37.4 °F 35% 30.06 in - North 13.8 mph - N/A   Clear
11:30 AM 68.0 °F 39.2 °F 35% 30.04 in - NNE 13.8 mph - N/A   Clear
12:00 PM 69 °F 37 °F 20% 30.04 in 19 mi NNE 12.7 mph - -   Partly Cloudy
12:00 PM 69.8 °F 37.4 °F 31% 30.04 in - NNE 12.7 mph - N/A   Clear
12:30 PM 69.8 °F 37.4 °F 31% 30.01 in - North 15.0 mph - N/A   Clear
1:00 PM 71.6 °F 37.4 °F 29% 29.98 in - NNE 13.8 mph - N/A   Clear
1:30 PM 71.6 °F 39.2 °F 31% 29.98 in - NNE 15.0 mph - N/A   Clear
2:00 PM 73 °F 41 °F 20% 29.98 in - North 15.0 mph - -  
2:00 PM 73.4 °F 41.0 °F 31% 29.98 in - North 15.0 mph - N/A   Clear
2:30 PM 73.4 °F 39.2 °F 29% 29.98 in - NNE 12.7 mph - N/A   Clear
3:00 PM 71 °F 40 °F 22% 29.98 in 19 mi NNE 12.7 mph - -   Partly Cloudy
3:00 PM 71.6 °F 41.0 °F 33% 29.98 in - North 12.7 mph - N/A   Clear
3:30 PM 69.8 °F 42.8 °F 38% 29.98 in - North 12.7 mph - N/A   Clear
4:00 PM 69.8 °F 42.8 °F 38% 29.98 in - North 10.4 mph - N/A   Clear
4:30 PM 71.6 °F 42.8 °F 35% 29.98 in - North 8.1 mph - N/A   Clear
5:00 PM 68 °F 44 °F 30% 29.98 in - North 9.2 mph - -  
5:00 PM 68.0 °F 42.8 °F 40% 29.98 in - North 9.2 mph - N/A   Clear
5:30 PM 64.4 °F 44.6 °F 49% 29.98 in - NNE 6.9 mph - N/A   Clear
6:00 PM 63 °F 44 °F 39% 29.98 in 16 mi NE 5.8 mph - -   Partly Cloudy
6:00 PM 62.6 °F 44.6 °F 52% 29.98 in - NE 5.8 mph - N/A   Clear
6:30 PM 60.8 °F 44.6 °F 55% 29.98 in - NE 5.8 mph - N/A   Clear
7:00 PM 60.8 °F 42.8 °F 52% 29.98 in - NE 6.9 mph - N/A   Clear
7:30 PM 59.0 °F 42.8 °F 55% 29.98 in - NE 5.8 mph - N/A   Clear
8:00 PM 59 °F 43 °F 43% 30.00 in - NE 6.9 mph - -  
8:00 PM 59.0 °F 42.8 °F 55% 29.98 in - NE 6.9 mph - N/A   Clear
8:30 PM 55.4 °F 44.6 °F 67% 29.98 in - NNE 5.8 mph - N/A   Clear
9:00 PM 55 °F 44 °F 56% 30.00 in 16 mi North 5.8 mph - -   Partly Cloudy
9:00 PM 55.4 °F 44.6 °F 67% 29.98 in - North 5.8 mph - N/A   Clear
9:30 PM 53.6 °F 44.6 °F 72% 29.98 in - NNE 6.9 mph - N/A   Clear
10:00 PM 51.8 °F 44.6 °F 76% 29.98 in - North 5.8 mph - N/A   Clear
10:30 PM 51.8 °F 42.8 °F 71% 29.98 in - North 5.8 mph - N/A   Clear
11:00 PM 48 °F 42 °F 75% 29.99 in - NNE 8.1 mph - -  
11:00 PM 48.2 °F 42.8 °F 82% 29.98 in - NNE 8.1 mph - N/A   Clear
11:30 PM 51.8 °F 41.0 °F 67% 29.98 in - NE 6.9 mph - N/A   Clear